| time (UTC) | temp C | wind direction | speed KPH | gust KPH | rain 1hr cm | rain 24hr cm | rain mn cm | humidity % | barometer mb |
| 20260509070320 | 16 | 294 | 1.6 | 6.4 | 0.00 | 1.32 | 0.00 | 65 | 1010.5 |
| 20260509065821 | 16 | 302 | 1.6 | 4.8 | 0.00 | 1.32 | 0.00 | 65 | 1010.4 |
| 20260509065330 | 16 | 327 | 1.6 | 6.4 | 0.00 | 1.32 | 0.00 | 65 | 1010.5 |
| 20260509064830 | 16 | 324 | 3.2 | 6.4 | 0.00 | 1.32 | 0.00 | 65 | 1010.6 |
| 20260509064339 | 16 | 292 | 3.2 | 6.4 | 0.00 | 1.32 | 0.00 | 65 | 1010.6 |
| 20260509063820 | 16 | 346 | 1.6 | 6.4 | 0.00 | 1.32 | 0.00 | 65 | 1010.7 |
| 20260509063317 | 16 | 307 | 1.6 | 6.4 | 0.00 | 1.32 | 0.00 | 65 | 1010.8 |
| 20260509062818 | 16 | 328 | 3.2 | 6.4 | 0.00 | 1.32 | 0.00 | 65 | 1010.7 |
| 20260509062326 | 16 | 292 | 3.2 | 6.4 | 0.00 | 1.32 | 0.00 | 65 | 1010.9 |
| 20260509061827 | 16 | 342 | 1.6 | 8.0 | 0.00 | 1.32 | 0.00 | 65 | 1010.8 |
| 20260509061335 | 17 | 290 | 3.2 | 8.0 | 0.00 | 1.32 | 0.00 | 64 | 1010.8 |
| 20260509060816 | 17 | 321 | 1.6 | 6.4 | 0.00 | 1.32 | 0.00 | 64 | 1010.9 |
| 20260509060317 | 17 | 273 | 1.6 | 8.0 | 0.00 | 1.32 | 0.00 | 65 | 1010.9 |
| 20260509055825 | 17 | 360 | 4.8 | 8.0 | 0.00 | 1.32 | 0.00 | 65 | 1010.7 |
| 20260509055326 | 17 | 241 | 1.6 | 6.4 | 0.00 | 1.32 | 0.00 | 65 | 1010.6 |
| 20260509054855 | 17 | 236 | 0.0 | 0.0 | 0.00 | 1.32 | 0.00 | 65 | 1010.4 |
| 20260509054314 | 17 | 232 | 0.0 | 0.0 | 0.00 | 1.32 | 0.00 | 65 | 1010.3 |
| 20260509053821 | 17 | 207 | 0.0 | 0.0 | 0.00 | 1.32 | 0.00 | 65 | 1010.3 |
| 20260509053329 | 17 | 201 | 0.0 | 0.0 | 0.00 | 1.32 | 0.00 | 65 | 1010.5 |
| 20260509052829 | 17 | 194 | 0.0 | 4.8 | 0.00 | 1.32 | 0.00 | 65 | 1010.4 |
| 20260509052337 | 17 | 194 | 1.6 | 6.4 | 0.00 | 1.32 | 0.00 | 65 | 1010.3 |
| 20260509051815 | 17 | 192 | 3.2 | 9.7 | 0.00 | 1.32 | 0.00 | 65 | 1010.5 |
| 20260509051316 | 17 | 163 | 4.8 | 9.7 | 0.00 | 1.32 | 0.00 | 65 | 1010.3 |
| 20260509050816 | 17 | 140 | 3.2 | 6.4 | 0.00 | 1.32 | 0.00 | 65 | 1010.3 |
| 20260509050343 | 17 | 180 | 3.2 | 8.0 | 0.00 | 1.32 | 0.00 | 65 | 1010.3 |
| 20260509045830 | 17 | 155 | 3.2 | 8.0 | 0.00 | 1.32 | 1.32 | 65 | 1010.2 |
| 20260509045330 | 17 | 153 | 1.6 | 8.0 | 0.00 | 1.32 | 1.32 | 65 | 1010.1 |
| 20260509044859 | 17 | 155 | 3.2 | 9.7 | 0.00 | 1.32 | 1.32 | 65 | 1010.0 |
| 20260509044318 | 17 | 153 | 3.2 | 8.0 | 0.00 | 1.32 | 1.32 | 65 | 1010.3 |
| 20260509043819 | 17 | 153 | 0.0 | 0.0 | 0.00 | 1.32 | 1.32 | 65 | 1010.3 |
| 20260509043327 | 17 | 153 | 0.0 | 0.0 | 0.00 | 1.32 | 1.32 | 65 | 1009.9 |
| 20260509042828 | 17 | 153 | 0.0 | 0.0 | 0.03 | 1.32 | 1.32 | 65 | 1009.8 |
| 20260509042316 | 17 | 153 | 0.0 | 0.0 | 0.03 | 1.32 | 1.32 | 65 | 1009.7 |
| 20260509041835 | 17 | 153 | 0.0 | 0.0 | 0.03 | 1.32 | 1.32 | 65 | 1009.7 |
| 20260509041343 | 17 | 153 | 0.0 | 0.0 | 0.03 | 1.32 | 1.32 | 65 | 1009.6 |
| 20260509040831 | 18 | 153 | 0.0 | 0.0 | 0.03 | 1.32 | 1.32 | 65 | 1009.8 |
| 20260509040317 | 18 | 153 | 0.0 | 0.0 | 0.03 | 1.32 | 1.32 | 65 | 1010.0 |
| 20260509035819 | 18 | 153 | 0.0 | 4.8 | 0.03 | 1.32 | 1.32 | 65 | 1009.9 |
| 20260509035327 | 18 | 153 | 1.6 | 4.8 | 0.03 | 1.32 | 1.32 | 65 | 1010.0 |
| 20260509034843 | 18 | 157 | 1.6 | 8.0 | 0.03 | 1.32 | 1.32 | 65 | 1009.9 |
| 20260509034349 | 18 | 157 | 3.2 | 9.7 | 0.03 | 1.32 | 1.32 | 65 | 1009.9 |
| 20260509033836 | 18 | 173 | 3.2 | 9.7 | 0.03 | 1.32 | 1.32 | 65 | 1010.0 |
| 20260509033317 | 18 | 143 | 4.8 | 9.7 | 0.03 | 1.32 | 1.32 | 65 | 1009.9 |
| 20260509032818 | 18 | 157 | 4.8 | 9.7 | 0.00 | 1.30 | 1.30 | 65 | 1010.0 |
| 20260509032317 | 18 | 123 | 3.2 | 4.8 | 0.00 | 1.30 | 1.30 | 65 | 1010.1 |
| 20260509031845 | 18 | 109 | 1.6 | 6.4 | 0.00 | 1.30 | 1.30 | 65 | 1010.0 |
| 20260509031331 | 18 | 92 | 1.6 | 8.0 | 0.00 | 1.30 | 1.30 | 65 | 1010.0 |
| 20260509030829 | 18 | 82 | 4.8 | 8.0 | 0.00 | 1.30 | 1.30 | 65 | 1010.0 |
| 20260509030313 | 18 | 96 | 0.0 | 9.7 | 0.00 | 1.30 | 1.30 | 65 | 1010.3 |
| 20260509025814 | 18 | 96 | 3.2 | 9.7 | 0.00 | 1.30 | 1.30 | 65 | 1010.2 |
| 20260509025322 | 19 | 103 | 3.2 | 9.7 | 0.00 | 1.30 | 1.30 | 65 | 1010.0 |
| 20260509024820 | 19 | 207 | 3.2 | 6.4 | 0.00 | 1.30 | 1.30 | 65 | 1010.1 |
| 20260509024323 | 19 | 257 | 0.0 | 0.0 | 0.05 | 1.30 | 1.30 | 65 | 1010.1 |
| 20260509023823 | 19 | 257 | 0.0 | 3.2 | 0.13 | 1.30 | 1.30 | 65 | 1009.9 |
| 20260509023330 | 19 | 257 | 1.6 | 4.8 | 0.23 | 1.30 | 1.30 | 65 | 1009.6 |
| 20260509022829 | 19 | 258 | 0.0 | 11.3 | 0.30 | 1.30 | 1.30 | 65 | 1009.4 |